This demonstration page uses our WeatherBlox Daily Observations layout. Learn more.

Left ArrowRight Arrow

38.88101, -77.10428

Hourly Observations for January 22, 2021

Temp ( °F °C ) Dew Point ( °F °C ) Humidity (%) Winds ( mph kmh ) Pressure ( in mb ) Visibility ( mi km ) Precip ( " mm )
12:52 am 00:52 Clear 40 4.4 25 -3.9 55 55 SW 6 9 29.72 1007 10 16 0.00 0.00
1:52 am 01:52 Clear 40 4.4 23 -5 51 51 SW 6 9 29.73 1007 10 16 0.00 0.00
2:52 am 02:52 Clear 37 2.8 24 -4.4 59 59 SW 6 9 29.74 1007 10 16 0.00 0.00
3:52 am 03:52 Clear 36 2.2 26 -3.3 67 67 S 5 7 29.74 1007 10 16 0.00 0.00
4:52 am 04:52 Clear 36 2.2 29 -1.7 76 76 S 5 7 29.74 1007 10 16 0.00 0.00
5:52 am 05:52 Clear 34 1.1 30 -1.1 85 85 S 7 11 29.75 1008 10 16 0.00 0.00
6:52 am 06:52 Mostly Clear 33 0.6 27 -2.8 78 78 S 6 9 29.78 1008 10 16 0.00 0.00
7:52 am 07:52 Mostly Sunny 36 2.2 28 -2.2 73 73 SSW 5 7 29.80 1009 10 16 0.00 0.00
8:52 am 08:52 Mostly Sunny 38 3.3 31 -0.6 76 76 S 6 9 29.81 1009 10 16 0.00 0.00
9:52 am 09:52 Mostly Sunny 41 5 30 -1.1 65 65 SSE 6 9 29.83 1010 10 16 0.00 0.00
10:52 am 10:52 Partly Cloudy 49 9.4 27 -2.8 43 43 undefined N/A 29.83 1010 10 16 0.00 0.00
11:52 am 11:52 Partly Cloudy 50 10 24 -4.4 36 36 WNW 13 20 29.82 1010 10 16 0.00 0.00
12:52 pm 12:52 Mostly Cloudy 50 10 23 -5 35 35 WNW 16 26 29.81 1009 10 16 0.00 0.00
1:52 pm 13:52 Mostly Cloudy 50 10 23 -5 35 35 NW 16 26 29.82 1010 10 16 0.00 0.00
2:52 pm 14:52 Partly Cloudy 50 10 19 -7.2 29 29 WNW 16 26 29.83 1010 10 16 0.00 0.00
3:52 pm 15:52 Partly Cloudy 48 8.9 19 -7.2 32 32 NW 16 26 29.86 1011 10 16 0.00 0.00
4:52 pm 16:52 Mostly Sunny 46 7.8 18 -7.8 32 32 NW 20 31 29.89 1012 10 16 0.00 0.00
5:52 pm 17:52 Mostly Clear 43 6.1 18 -7.8 37 37 NW 14 22 29.92 1013 10 16 0.00 0.00
6:52 pm 18:52 Mostly Clear 42 5.6 19 -7.2 40 40 NNW 15 24 29.93 1014 10 16 0.00 0.00
7:52 pm 19:52 Mostly Clear 41 5 18 -7.8 39 39 NW 14 22 29.97 1015 10 16 0.00 0.00
8:52 pm 20:52 Mostly Clear 40 4.4 17 -8.3 40 40 NNW 8 13 29.98 1015 10 16 0.00 0.00
9:52 pm 21:52 Mostly Clear 40 4.4 17 -8.3 40 40 NW 16 26 29.98 1015 10 16 0.00 0.00
10:52 pm 22:52 Partly Cloudy 37 2.8 18 -7.8 46 46 N 7 11 30.00 1016 10 16 0.00 0.00
11:52 pm 23:52 Partly Cloudy 40 4.4 17 -8.3 40 40 NW 14 22 30.01 1016 10 16 0.00 0.00

Powered by AerisWeather